Location: Innsbruck
(47.2657°N, 11.3914°E)
Time: 03:25:58
(UTC+02:00)

Envisat - Pass Details

Date: 12 February 2023
Orbit: 763 x 765 km, 98.2° (Epoch: 28 March)

Event Time Altitude Azimuth Distance (km) Brightness Sun altitude
Rises 04:25:25 0° 14° (NNE) 3,244 6.6 -30.8°
Reaches altitude 10° 04:27:44 10° 15° (NNE) 2,313 5.8 -30.5°
Enters shadow 04:31:11 44° 19° (NNE) 1,049 3.8 -29.9°
